Weather History for KPDT - November, 2012

Change the Weather History Date:

Friday, November 16, 2012

  Actual Average Record
Temperature  
Mean Temperature 38 °F 41 °F  
Max Temperature 40 °F 49 °F 70 °F (1896)
Min Temperature 36 °F 34 °F -1 °F (1909)
Degree Days  
Heating Degree Days 27 24  
Month to date heating degree days 320 339  
Since 1 July heating degree days 802 881  
Cooling Degree Days 0 0  
Month to date cooling degree days 0 0  
Year to date cooling degree days 611 636  
Moisture  
Dew Point 37 °F    
Average Humidity 96    
Maximum Humidity 100    
Minimum Humidity 92    
Precipitation  
Precipitation 0.00 in 0.05 in 0.63 in (1986)
Month to date precipitation 0.68 0.80  
Year to date precipitation 12.26 10.47  
Snow  
Snow 0.00 in 0.10 in 0.60 in (1955)
Month to date snowfall T 0.4  
Year to date snowfall 5.9 8.2  
Since 1 July snowfall T 0.5  
Snow Depth 0.00 in    
Sea Level Pressure  
Sea Level Pressure 29.95 in    
Wind  
Wind Speed 2 mph (NE)    
Max Wind Speed 8 mph    
Max Gust Speed 10 mph    
Visibility 3 miles    
Events Fog    
T = Trace of Precipitation, MM = Missing Value Source: NWS Daily Summary

Daily Weather History Graph

Daily Weather History Graph

Search for Another Location

Airport or City:

Trip Planner

Search our weather history database for the weather conditions in past years. The results will help you decide how hot, cold, wet, or windy it might be!

Date:

Astronomy

Nov. 16, 2012 Rise Set
Actual Time 6:57 AM PST 4:22 PM PST
Civil Twilight 6:24 AM PST 4:55 PM PST
Nautical Twilight 5:48 AM PST 5:31 PM PST
Astronomical Twilight 5:13 AM PST 6:06 PM PST
Moon 9:58 AM PST (11/16) 7:26 PM PST (11/16)
Length of Visible Light 10h 30m
Length of Day
9h 25m
Waxing Crescent, 12% of the Moon is Illuminated
Nov 16
Waxing Crescent
Nov 20
First Quarter
Nov 28
Full
Dec 6
Last Quarter
Dec 13
New

Hourly Weather History & Observations

Time (PST) Temp. Windchill Dew Point Humidity Pressure Visibility Wind Dir Wind Speed Gust Speed Precip Events Conditions
12:18 AM 37.4 °F 32.8 °F 37.4 °F 100% 29.99 in 2.0 mi NW 5.8 mph - N/A   Overcast
12:29 AM 37.4 °F 32.8 °F 37.4 °F 100% 30.00 in 1.8 mi WNW 5.8 mph - N/A   Overcast
12:39 AM 37.4 °F 32.8 °F 37.4 °F 100% 30.00 in 2.0 mi NW 5.8 mph - N/A   Overcast
12:53 AM 37.0 °F 33.3 °F 37.0 °F 100% 30.01 in 1.8 mi WNW 4.6 mph - N/A   Overcast
1:35 AM 37.4 °F - 37.4 °F 100% 29.99 in 2.0 mi Calm Calm - N/A   Overcast
1:53 AM 37.0 °F 33.3 °F 37.0 °F 100% 30.01 in 1.8 mi WNW 4.6 mph - N/A   Overcast
2:07 AM 37.4 °F 34.9 °F 37.4 °F 100% 29.98 in 1.0 mi NNW 3.5 mph - N/A   Overcast
2:17 AM 37.4 °F - 37.4 °F 100% 29.98 in 0.8 mi Calm Calm - N/A   Overcast
2:53 AM 37.0 °F - 37.0 °F 100% 29.99 in 0.8 mi Calm Calm - N/A   Overcast
3:03 AM 37.4 °F - 37.4 °F 100% 29.97 in 1.0 mi Calm Calm - N/A   Overcast
3:23 AM 37.4 °F - 37.4 °F 100% 29.95 in 0.8 mi Calm Calm - N/A   Overcast
3:53 AM 37.0 °F - 37.0 °F 100% 29.96 in 0.8 mi Calm Calm - N/A   Overcast
4:06 AM 37.4 °F - 37.4 °F 100% 29.94 in 1.8 mi Calm Calm - N/A   Overcast
4:10 AM 37.4 °F - 37.4 °F 100% 29.95 in 3.0 mi Calm Calm - N/A   Overcast
4:25 AM 37.4 °F - 37.4 °F 100% 29.95 in 2.0 mi Calm Calm - N/A   Overcast
4:51 AM 37.4 °F - 37.4 °F 100% 29.95 in 1.2 mi Calm Calm - N/A   Overcast
4:52 AM 37.0 °F - 37.0 °F 100% 29.96 in 1.2 mi Calm Calm - N/A   Overcast
5:16 AM 37.4 °F 34.9 °F 37.4 °F 100% 29.95 in 2.0 mi NW 3.5 mph - N/A   Overcast
5:36 AM 37.4 °F - 37.4 °F 100% 29.95 in 5.0 mi Calm Calm - N/A   Overcast
5:53 AM 37.0 °F 34.5 °F 36.0 °F 96% 29.97 in 6.0 mi North 3.5 mph - N/A   Overcast
6:32 AM 37.4 °F - 35.6 °F 93% 29.97 in 8.0 mi Calm Calm - N/A   Overcast
6:53 AM 37.0 °F 34.5 °F 36.0 °F 96% 29.99 in 7.0 mi NE 3.5 mph - N/A   Overcast
7:53 AM 37.0 °F 33.3 °F 36.0 °F 96% 29.99 in 4.0 mi ENE 4.6 mph - N/A   Overcast
8:13 AM 37.4 °F - 35.6 °F 93% 29.98 in 4.0 mi Calm Calm - N/A   Overcast
8:43 AM 37.4 °F 32.8 °F 35.6 °F 93% 29.97 in 2.5 mi East 5.8 mph - N/A   Overcast
8:53 AM 37.0 °F 33.3 °F 36.0 °F 96% 29.99 in 2.5 mi East 4.6 mph - N/A   Overcast
9:32 AM 37.4 °F 34.9 °F 35.6 °F 93% 29.96 in 3.0 mi East 3.5 mph - N/A   Overcast
9:53 AM 37.0 °F - 37.0 °F 100% 29.99 in 3.0 mi Calm Calm - N/A   Overcast
10:43 AM 37.4 °F 34.9 °F 37.4 °F 100% 29.98 in 2.5 mi NNW 3.5 mph - N/A   Overcast
10:53 AM 37.0 °F 34.5 °F 37.0 °F 100% 29.99 in 2.5 mi Variable 3.5 mph - N/A   Overcast
11:00 AM 37.4 °F 33.8 °F 37.4 °F 100% 29.97 in 4.0 mi WNW 4.6 mph - N/A   Overcast
11:53 AM 37.9 °F 35.5 °F 37.9 °F 100% 29.97 in 4.0 mi West 3.5 mph - N/A   Overcast
12:53 PM 39.0 °F - 37.9 °F 96% 29.96 in 4.0 mi Calm Calm - N/A   Overcast
1:53 PM 39.9 °F - 37.9 °F 93% 29.94 in 5.0 mi Calm Calm - N/A   Overcast
2:07 PM 39.2 °F - 37.4 °F 93% 29.93 in 6.0 mi Calm Calm - N/A   Overcast
2:53 PM 39.9 °F - 37.9 °F 93% 29.94 in 8.0 mi Calm Calm - N/A   Overcast
3:53 PM 39.0 °F 36.8 °F 37.9 °F 96% 29.95 in 6.0 mi South 3.5 mph - N/A   Overcast
4:53 PM 39.0 °F - 37.9 °F 96% 29.94 in 7.0 mi Calm Calm - N/A   Overcast
5:41 PM 39.2 °F 34.2 °F 37.4 °F 93% 29.92 in 3.0 mi East 6.9 mph - N/A   Overcast
5:53 PM 37.9 °F 35.5 °F 37.9 °F 100% 29.93 in 4.0 mi East 3.5 mph - N/A   Overcast
6:18 PM 37.4 °F 31.4 °F 37.4 °F 100% 29.92 in 1.8 mi East 8.1 mph - N/A   Overcast
6:46 PM 37.4 °F 32.1 °F 37.4 °F 100% 29.91 in 2.0 mi ENE 6.9 mph - N/A   Overcast
6:53 PM 37.0 °F 32.4 °F 37.0 °F 100% 29.92 in 2.5 mi ENE 5.8 mph - N/A   Overcast
7:05 PM 37.4 °F 33.8 °F 37.4 °F 100% 29.91 in 4.0 mi ENE 4.6 mph - N/A   Overcast
7:53 PM 37.9 °F 35.5 °F 37.9 °F 100% 29.92 in 5.0 mi North 3.5 mph - N/A   Overcast
8:53 PM 37.9 °F - 37.0 °F 97% 29.92 in 4.0 mi Calm Calm - N/A   Overcast
9:53 PM 37.0 °F 32.4 °F 37.0 °F 100% 29.91 in 3.0 mi ESE 5.8 mph - N/A   Overcast
10:00 PM 37.4 °F 33.8 °F 37.4 °F 100% 29.90 in 2.5 mi ESE 4.6 mph - N/A   Overcast
10:21 PM 37.4 °F 34.9 °F 37.4 °F 100% 29.89 in 1.2 mi ESE 3.5 mph - N/A   Overcast
10:31 PM 37.4 °F 33.8 °F 37.4 °F 100% 29.89 in 0.5 mi East 4.6 mph - N/A Fog Fog
10:38 PM 37.4 °F 33.8 °F 37.4 °F 100% 29.88 in 0.2 mi ESE 4.6 mph - N/A Fog Fog
10:53 PM 37.0 °F 33.3 °F 37.0 °F 100% 29.89 in 0.2 mi East 4.6 mph - N/A Fog Fog
11:53 PM 37.9 °F - 37.9 °F 100% 29.88 in 0.2 mi Calm Calm - N/A Fog Fog